Showing default

SECOR 7 (EGRS 7), 2411

Orbit data source: Space-Track

SECOR 7 (EGRS 7), 2411 is an American payload satellite in LEO that was launched on Fri, 19 Aug 1966 UTC via an ATLAS SLV-3 AGENA D launch vehicle from the Air Force Western Test Range (AFWTR). Payload-class satellites include a variety of spacecraft equipped with specific instruments for various scientific and technological missions. These include communications satellites like Starlink; space stations such as the ISS; scientific satellites like the Hubble; Earth observation satellites from companies like Planet Labs, Umbra, and HawkEye 360; GPS; miniature CubeSats for education and research; and military/defense satellites.

Loading next visibility...
Identifier
2411, 1966-077B
Orbit
LEO
Country
Flag of USUS
Related business
Manufacturer
ITT
Mission
Spacecraft
Bus & Motor
SECOR, Unknown motor
Mass
18 kg wet, 18 kg dry
Launch date (UTC)
1966-08-19 (60 years ago)
Launch vehicle
ATLAS SLV-3 AGENA D
Launch site
Air Force Western Test Range (AFWTR)
Object type
Payload
Rocket body
Debris
Shape & HBR
Unknown
Radar Cross Section
Medium (>0.1 m² and <1 m²)

Expand to show TLE details & history
Last TLE update: 2 days ago

TLE from 2 days ago
0 SECOR 7 (EGRS 7)
1 02411U 66077B   26197.19218759  .00000029  00000-0  13417-1 0  9999
2 02411  90.3355 277.7833 0010982  30.0122 330.1357  8.59615204879871
Epoch: 2026-07-16T04:36Z
TLE epoch observation values (Epoch: 2026-07-16T04:36:45.007Z)
Latitude
-0.00006°
Longitude
-85.4414°
Altitude
3,680.67 km
Speed
6.299 km/s
True Right ascension
18h 31m 07s
True Declination
0° 00' 00"
Sunlit
Object was in full shadow at epoch
Visualization orbit readout
Latitude
Unknown
Longitude
Unknown
Altitude
Unknown
Speed
Unknown
Apparent Right ascension
Unknown
Apparent Declination
Unknown
Sunlit
N/A
Visualization observer readout
Local Sidereal Time
15:58:01
Azimuth
Unknown
Elevation
Unknown
Doppler factor
Unknown
Orbital elements
Apogee altitude
3,696.94 km
Perigee altitude
3,674.835 km
Semi-major axis
10,064.024 km
Eccentricity
0.0011
Inclination
90.3355°
RAAN
277.7833°
Arg. of periapsis
30.0122°
True anomaly
330.07296°
Mean anomaly
330.1357°
Eccentric anomaly
330.10434°
Mean motion
2.14974 °/min
Orbital period
167.46 mins
BSTAR
0.013417
Loading maneuver chart data...
Computing Atmospheric mass density...
Loading historical data...
Loading historical data...
Loading historical data...
Loading historical data...
Loading historical data...
Loading historical data...
Loading historical data...

Documentation

Showing up to 5 results
|